Previsão horária em Bolshie Kibyachi

Hoje, 3 Março, Quarta-feira

Tempo Temperatura Precipitação Vento Pressão Humidade
00:00 -9°C° 0 mm 4 m/s 738 mmHg 96%
01:00 -9°C° 0 mm 4 m/s 738 mmHg 96%
02:00 -9°C° 0 mm 3 m/s 738 mmHg 96%
03:00 -9°C° 0 mm 3 m/s 738 mmHg 96%
04:00 -9°C° 0 mm 3 m/s 738 mmHg 96%
05:00 -9°C° 0 mm 3 m/s 738 mmHg 96%
06:00 -9°C° 0 mm 3 m/s 738 mmHg 96%
07:00 -8°C° 0.2 mm 3 m/s 738 mmHg 96%
08:00 -7°C° 0.2 mm 3 m/s 738 mmHg 95%
09:00 -7°C° 0.2 mm 4 m/s 739 mmHg 95%
10:00 -7°C° 0.2 mm 4 m/s 739 mmHg 95%
11:00 -5°C° 0.2 mm 4 m/s 739 mmHg 95%
12:00 -6°C° 0.2 mm 5 m/s 739 mmHg 95%
13:00 -6°C° 0.3 mm 5 m/s 739 mmHg 93%
14:00 -6°C° 0.3 mm 6 m/s 739 mmHg 92%
15:00 -6°C° 0.3 mm 6 m/s 740 mmHg 90%
16:00 -8°C° 0 mm 6 m/s 740 mmHg 90%
17:00 -9°C° 0 mm 6 m/s 740 mmHg 89%
18:00 -10°C° 0 mm 6 m/s 740 mmHg 88%
19:00 -10°C° 0 mm 5 m/s 741 mmHg 89%
20:00 -11°C° 0 mm 5 m/s 741 mmHg 90%
21:00 -10°C° 0 mm 4 m/s 741 mmHg 90%
22:00 -10°C° 0 mm 4 m/s 741 mmHg 91%
23:00 -10°C° 0 mm 4 m/s 741 mmHg 92%

Amanhã, 4 Março, Quinta-feira

Tempo Temperatura Precipitação Vento Pressão Humidade
00:00 -9°C° 0 mm 3 m/s 741 mmHg 92%
01:00 -11°C° 0 mm 4 m/s 740 mmHg 93%
02:00 -12°C° 0 mm 4 m/s 740 mmHg 94%
03:00 -14°C° 0 mm 4 m/s 740 mmHg 95%
04:00 -13°C° 0.2 mm 5 m/s 739 mmHg 94%
05:00 -12°C° 0.2 mm 5 m/s 738 mmHg 94%
06:00 -11°C° 0.2 mm 6 m/s 738 mmHg 93%
07:00 -10°C° 0.1 mm 6 m/s 737 mmHg 94%
08:00 -9°C° 0.1 mm 6 m/s 737 mmHg 94%
09:00 -8°C° 0.1 mm 6 m/s 737 mmHg 94%
10:00 -7°C° 0.2 mm 7 m/s 736 mmHg 94%
11:00 -7°C° 0.2 mm 7 m/s 736 mmHg 94%
12:00 -6°C° 0.2 mm 8 m/s 735 mmHg 94%
13:00 -6°C° 0.2 mm 8 m/s 735 mmHg 94%
14:00 -4°C° 0.2 mm 7 m/s 734 mmHg 94%
15:00 -4°C° 0.2 mm 7 m/s 734 mmHg 95%
16:00 -4°C° 0.6 mm 7 m/s 734 mmHg 92%
17:00 -5°C° 0.6 mm 8 m/s 734 mmHg 89%
18:00 -5°C° 0.6 mm 9 m/s 733 mmHg 87%
19:00 -7°C° 0 mm 8 m/s 734 mmHg 87%
20:00 -8°C° 0 mm 6 m/s 735 mmHg 88%
21:00 -8°C° 0 mm 5 m/s 735 mmHg 89%
22:00 -8°C° 0 mm 5 m/s 736 mmHg 91%
23:00 -10°C° 0 mm 5 m/s 736 mmHg 92%

Depois de amanhã, 5 Março, Sexta-feira

Tempo Temperatura Precipitação Vento Pressão Humidade
00:00 -9°C° 0 mm 4 m/s 737 mmHg 94%
01:00 -10°C° 0 mm 4 m/s 737 mmHg 95%
02:00 -10°C° 0 mm 3 m/s 737 mmHg 95%
03:00 -10°C° 0 mm 2 m/s 738 mmHg 96%
04:00 -10°C° 0 mm 2 m/s 738 mmHg 96%
05:00 -10°C° 0 mm 2 m/s 738 mmHg 95%
06:00 -9°C° 0 mm 1 m/s 738 mmHg 95%
07:00 -10°C° 0 mm 2 m/s 738 mmHg 94%
08:00 -10°C° 0 mm 2 m/s 739 mmHg 93%
09:00 -9°C° 0 mm 2 m/s 739 mmHg 92%
10:00 -10°C° 0 mm 3 m/s 739 mmHg 91%
11:00 -10°C° 0 mm 3 m/s 739 mmHg 90%
12:00 -10°C° 0 mm 3 m/s 739 mmHg 88%
13:00 -11°C° 0 mm 4 m/s 739 mmHg 88%
14:00 -12°C° 0 mm 4 m/s 740 mmHg 87%
15:00 -12°C° 0 mm 4 m/s 740 mmHg 87%
16:00 -15°C° 0 mm 4 m/s 741 mmHg 89%
17:00 -17°C° 0 mm 4 m/s 742 mmHg 91%
18:00 -17°C° 0 mm 3 m/s 743 mmHg 93%
19:00 -18°C° 0 mm 3 m/s 744 mmHg 93%
20:00 -19°C° 0 mm 3 m/s 745 mmHg 94%
21:00 -21°C° 0 mm 3 m/s 745 mmHg 94%
22:00 -21°C° 0 mm 3 m/s 746 mmHg 95%
23:00 -21°C° 0 mm 3 m/s 746 mmHg 96%

6 Março, Sábado

Tempo Temperatura Precipitação Vento Pressão Humidade
00:00 -22°C° 0 mm 3 m/s 746 mmHg 97%
01:00 -20°C° 0 mm 2 m/s 747 mmHg 97%
02:00 -20°C° 0 mm 2 m/s 747 mmHg 97%
03:00 -20°C° 0 mm 2 m/s 748 mmHg 98%
04:00 -20°C° 0 mm 2 m/s 748 mmHg 98%
05:00 -20°C° 0 mm 2 m/s 748 mmHg 98%
06:00 -20°C° 0 mm 2 m/s 748 mmHg 99%
07:00 -19°C° 0 mm 2 m/s 748 mmHg 98%
08:00 -18°C° 0 mm 2 m/s 748 mmHg 97%
09:00 -16°C° 0 mm 2 m/s 748 mmHg 96%
10:00 -15°C° 0 mm 2 m/s 748 mmHg 94%
11:00 -14°C° 0 mm 2 m/s 747 mmHg 93%
12:00 -13°C° 0 mm 2 m/s 747 mmHg 91%
13:00 -12°C° 0 mm 2 m/s 747 mmHg 91%
14:00 -12°C° 0 mm 2 m/s 746 mmHg 91%
15:00 -12°C° 0 mm 2 m/s 746 mmHg 92%
16:00 -13°C° 0 mm 2 m/s 745 mmHg 92%
17:00 -14°C° 0 mm 2 m/s 745 mmHg 93%
18:00 -15°C° 0 mm 2 m/s 745 mmHg 94%
19:00 -16°C° 0 mm 2 m/s 745 mmHg 94%
20:00 -16°C° 0 mm 2 m/s 745 mmHg 95%
21:00 -16°C° 0 mm 2 m/s 745 mmHg 95%
22:00 -16°C° 0.1 mm 2 m/s 745 mmHg 95%
23:00 -16°C° 0.1 mm 2 m/s 744 mmHg 96%

7 Março, Domingo

Tempo Temperatura Precipitação Vento Pressão Humidade
00:00 -16°C° 0.1 mm 2 m/s 744 mmHg 96%
01:00 -17°C° 0 mm 3 m/s 744 mmHg 96%
02:00 -17°C° 0 mm 3 m/s 745 mmHg 96%
03:00 -18°C° 0 mm 4 m/s 745 mmHg 96%
04:00 -19°C° 0 mm 3 m/s 745 mmHg 96%
05:00 -21°C° 0 mm 3 m/s 745 mmHg 97%
06:00 -22°C° 0 mm 3 m/s 745 mmHg 97%
07:00 -22°C° 0 mm 3 m/s 745 mmHg 96%
08:00 -22°C° 0 mm 3 m/s 745 mmHg 96%
09:00 -22°C° 0 mm 3 m/s 746 mmHg 95%
10:00 -21°C° 0 mm 3 m/s 745 mmHg 94%
11:00 -19°C° 0 mm 4 m/s 745 mmHg 93%
12:00 -18°C° 0 mm 4 m/s 745 mmHg 93%
13:00 -18°C° 0 mm 5 m/s 744 mmHg 93%
14:00 -17°C° 0 mm 5 m/s 744 mmHg 92%
15:00 -17°C° 0 mm 6 m/s 743 mmHg 92%
16:00 -17°C° 0.1 mm 7 m/s 743 mmHg 92%
17:00 -15°C° 0.1 mm 7 m/s 742 mmHg 92%
18:00 -16°C° 0.1 mm 8 m/s 741 mmHg 93%
19:00 -16°C° 0.4 mm 8 m/s 741 mmHg 93%
20:00 -15°C° 0.4 mm 9 m/s 740 mmHg 93%
21:00 -15°C° 0.4 mm 9 m/s 739 mmHg 93%
22:00 -14°C° 0.4 mm 9 m/s 738 mmHg 93%
23:00 -14°C° 0.4 mm 9 m/s 737 mmHg 93%

8 Março, Segunda-feira

Tempo Temperatura Precipitação Vento Pressão Humidade
00:00 -12°C° 0.4 mm 9 m/s 736 mmHg 93%
01:00 -11°C° 0.4 mm 9 m/s 735 mmHg 93%
02:00 -10°C° 0.4 mm 9 m/s 735 mmHg 93%
03:00 -10°C° 0.4 mm 9 m/s 735 mmHg 93%
04:00 -11°C° 0.3 mm 8 m/s 735 mmHg 89%
05:00 -11°C° 0.3 mm 6 m/s 735 mmHg 85%
06:00 -10°C° 0.3 mm 4 m/s 735 mmHg 82%
07:00 -11°C° 0.1 mm 5 m/s 735 mmHg 85%
08:00 -10°C° 0.1 mm 5 m/s 735 mmHg 88%
09:00 -8°C° 0.1 mm 5 m/s 735 mmHg 92%
10:00 -8°C° 0.5 mm 6 m/s 735 mmHg 89%
11:00 -6°C° 0.5 mm 6 m/s 735 mmHg 85%
12:00 -6°C° 0.5 mm 7 m/s 735 mmHg 82%
13:00 -6°C° 0.1 mm 6 m/s 735 mmHg 81%
14:00 -8°C° 0.1 mm 6 m/s 735 mmHg 80%
15:00 -8°C° 0.1 mm 5 m/s 736 mmHg 79%
16:00 -11°C° 0 mm 5 m/s 736 mmHg 81%
17:00 -12°C° 0 mm 5 m/s 737 mmHg 83%
18:00 -13°C° 0 mm 5 m/s 738 mmHg 85%
19:00 -14°C° 0 mm 5 m/s 739 mmHg 88%
20:00 -15°C° 0 mm 5 m/s 740 mmHg 91%
21:00 -17°C° 0 mm 5 m/s 741 mmHg 94%
22:00 -17°C° 0 mm 4 m/s 742 mmHg 95%
23:00 -16°C° 0 mm 3 m/s 742 mmHg 96%
Mostrar mais